Weather in Lobanovo

Russia / Republic of Crimea     45°46′26″N   34°14′39″E
temp.,
°C
wind,
m/s
gust,
m/s
humid.,
%
clouds,
%
prec.,
mm/h
press.,
hPa
HPBL,
m
21 january, thu
thu2100:00−4ese489691 0.1 1025218
03:00−4se479791 0.1 1025150
06:00−4se349633 0.0 102577
09:00−2se359523 0.0 102591
12:00+2ese478352 0.0 1026219
15:00+4sse358034 0.0 1024253
18:00+2s349121 0.0 102540
21:00+1s479316 0.0 1025102
22 january, fri
fri2200:00+2ssw410926 0.0 1025188
03:00+3ssw512924 0.0 1025254
06:00+3ssw5129140 0.0 1024249
09:00+2s498747 0.0 1024192
12:00+7ssw7147930 0.0 1023734
15:00+9ssw6127649 0.0 1022849
18:00+4s498551 0.0 1021155
21:00+4s4108768 0.0 1021221
23 january, sat
sat2300:00+4s4108595 0.0 1020196
03:00+5s4118598 0.0 1019214
06:00+5s597898 0.0 1019207
09:00+5sse4107992 0.0 1019215
12:00+11ssw6126485 0.0 1018880
15:00+12sw7126687 0.0 10171030
18:00+9s4107595 0.0 1017224
21:00+7sse478195 0.0 1017120
24 january, sun
sun2400:00+7sse4778100 0.0 1017114
03:00+6sse478296 0.0 1016101
06:00+6sse4477100 0.0 101487
09:00+5se487199 0.0 1014138
12:00+10sse5859100 0.0 1013368
15:00+13sw6104895 0.0 10121248
18:00+10s51275100 0.0 1012428
21:00+9s51571100 0.0 1012615
25 january, mon
mon2500:00+9s61374100 0.1 1012381
03:00+9s5127192 0.1 1012285
06:00+8sse5107183 0.0 1011206
09:00+7sse4107692 0.0 1011177
12:00+12sse51161100 0.0 1010564
15:00+13se61160100 0.0 1007612
18:00+10se71366100 0.0 1005382
21:00+11s101776100 1.2 1004950